Current weather by "City, St" or "zip code"  
 
Advertise Here

Current Conditions: Chenault Airpark, LA

Overcast


61.0 F

Last Updated on Jan 20 2021, 11:49 am CST
Humidity: 77%
Wind Speed: E 6.9 mph
Barometer 30.32 in
Dewpoint: 53.6 F
Visibility: 10.00 mi
Precip: --
Heat Index: NA
Wind Chill: 60 F
Current conditions at:

Chenault Airpark, LA (KCWF)

Lat: 30.21667 Lon: 93.15

Local Radar Image active severe weather and emergency alerts image image weather storm and storm spotter reports image weather observation monitoring service image
Local
Radar
Active
Alerts
Storm Reports Obs
Monitoring

Sign-up For Email & Text Message Weather Alert Notification Services


Advertise Here

Observation History for Chenault Airpark, LA


Time Wind
(mph)
Vis
(mi)
Weather Precip (in) Temperature (F) Relative
Humidity
Wind
Chill
(F)
Heat
Index
(F)
Pressure
Air Dwpt altimeter
(in)
sea level
(mb)
Rmks
11:49 am CST E 6.9 10.00 Overcast -- 61.0 53.6 77% 60 NA 30.32 M
9:47 am CST NE 8.1 10.00 Overcast -- 59.0 51.8 77% 58 NA 30.36 M
8:53 am CST E 9.2 10.00 Overcast -- 57.0 51.8 82% 55 NA 30.34 M
7:55 am CST E 5.8 10.00 Overcast -- 55.0 51.8 88% 54 NA 30.33 M
6:50 am CST NE 5.8 10.00 Overcast -- 55.0 51.8 88% 54 NA 30.35 M
5:35 am CST NE 6.9 10.00 Overcast -- 56.0 50.7 82% 54 NA 30.34 M
4:55 am CST NE 5.8 10.00 Overcast -- 56.0 51.8 84% 55 NA 30.34 M
3:55 am CST NE 6.9 10.00 Overcast -- 57.0 54.1 91% 56 NA 30.34 M
2:55 am CST N 4.6 10.00 Partly Cloudy -- 56.0 54.9 94% 55 NA 30.34 M
2:35 am CST N 4.6 10.00 Fair -- 56.0 55.0 95% 55 NA 30.33 M
1:55 am CST N 5.8 10.00 Fair -- 57.0 55.0 94% 56 NA 30.35 M
1:35 am CST N 0.0 10.00 Fair -- 57.0 55.2 94% NA NA 30.35 M
12:55 am CST N 0.0 10.00 Fair -- 57.0 54.9 94% NA NA 30.34 M
11:55 pm CST N 0.0 10.00 Partly Cloudy -- 58.0 55.4 93% NA NA 30.35 M
10:55 pm CST NE 3.5 10.00 Mostly Cloudy -- 57.0 55.0 94% NA NA 30.34 M
9:51 pm CST N 0.0 10.00 Clear -- 57.0 55.4 94% NA NA 30.34 M
8:49 pm CST N 0.0 10.00 Clear -- 55.0 55.4 100% NA NA 30.33 M
7:55 pm CST SE 4.6 10.00 Clear -- 57.0 53.6 88% 57 NA 30.31 M
6:53 pm CST SE 8.1 10.00 Clear -- 55.0 53.6 94% 53 NA 30.29 M
5:50 pm CST S 5.8 10.00 Clear -- 63.0 55.4 77% 63 NA 30.28 M
4:51 pm CST S 9.2 10.00 Clear -- 70.0 55.4 60% NA NA 30.28 M
3:50 pm CST S 15.0 10.00 Clear -- 72.0 55.4 57% NA NA 30.25 M
2:53 pm CST S 16.1 10.00 Clear -- 72.0 55.4 57% NA NA 30.24 M
1:45 pm CST S 15.0 10.00 Clear -- 73.0 53.6 50% NA NA 30.26 M

Regional Weather Observation


De Quincy Industrial Airpark, LA (K5R8)

Overcast
61.0 F

Lake Charles Regional Airport, LA (KLCH)

Overcast
61.0 F

Southland Field, LA (KUXL)

Overcast
64.0 F

De Ridder, Beauregard Parish Airport, LA (KDRI)

Overcast
60.0 F

Orange, Orange County Airport, TX (KORG)

Overcast
63.0 F

Jennings Airport, LA (K3R7)

Overcast
62.0 F